Volver al catálogo

SSS-1

ActivoCienciaPO
NORAD 49321·PAYLOAD·🇨🇳 China
Este nombre de satélite aún no ha sido confirmado por fuentes oficiales.

Lanzado Oct 14, 2021 desde Taiyuan Satellite Launch Center

Loading…

Próximos Pases (próximas 24 horas)

TLE

ActualizadoSource: Space-Track

Época: Sep 14, 2026, 15:33 UTC

1 49321U 21091G   26257.64796580  .00141804  97396-5  39300-3 0  9994
2 49321  97.3414 128.4034 0001964 142.8434 217.2978 15.93853960275781

Sigue SSS-1 en tiempo real con AllMySat

Download on the App Store